Burns, OR

12:19 AM PDT on August 24, 2017 (GMT -0700)
Burns Municipal

Weather History for KBNO - December, 2012

Change the Weather History Date:

Thursday, December 27, 2012

  Actual Average Record
Temperature  
Mean Temperature 13 °F 23 °F  
Max Temperature 26 °F 33 °F 57 °F (1967)
Min Temperature 0 °F 13 °F -13 °F (1988)
Degree Days  
Heating Degree Days 52 42  
Month to date heating degree days 998 1102  
Since 1 July heating degree days 2672 3103  
Cooling Degree Days 0 0  
Month to date cooling degree days 0 0  
Year to date cooling degree days 309 215  
Moisture  
Dew Point 6 °F    
Average Humidity 84    
Maximum Humidity 95    
Minimum Humidity 73    
Precipitation  
Precipitation T in 0.05 in 1.26 in (1945)
Month to date precipitation 1.71 1.36  
Year to date precipitation 10.31 10.73  
Sea Level Pressure  
Sea Level Pressure 30.10 in    
Wind  
Wind Speed 3 mph (NNE)    
Max Wind Speed 9 mph    
Max Gust Speed 12 mph    
Visibility 5 miles    
Events Fog , Snow    
T = Trace of Precipitation, MM = Missing Value Source: NWS Daily Summary

Daily Weather History Graph

Daily Weather History Graph

Search for Another Location

Airport or City:

Trip Planner

Search our weather history database for the weather conditions in past years. The results will help you decide how hot, cold, wet, or windy it might be!

Date:

Astronomy

Dec. 27, 2012 Rise Set
Actual Time 7:28 AM PST 4:26 PM PST
Civil Twilight 6:55 AM PST 4:58 PM PST
Nautical Twilight 6:19 AM PST 5:35 PM PST
Astronomical Twilight 5:44 AM PST 6:10 PM PST
Moon 4:14 PM PST (12/27) 6:42 AM PST (12/27)
Length of Visible Light 10h 03m
Length of Day
8h 57m
Full, 100% of the Moon is Illuminated
Dec 27
Full
Dec 28
Full
Jan 4
Last Quarter
Jan 11
New
Jan 18
First Quarter

Hourly Weather History & Observations

Time (PST) Temp. Windchill Dew Point Humidity Pressure Visibility Wind Dir Wind Speed Gust Speed Precip Events Conditions
12:00 AM 8.6 °F - 5.0 °F 85% 29.89 in 0.2 mi Calm Calm - N/A Fog Light Freezing Fog
12:22 AM 5.0 °F -4.1 °F -0.4 °F 78% 29.90 in 1.5 mi WSW 4.6 mph - N/A   Haze
12:26 AM 3.2 °F -4.2 °F -0.4 °F 85% 29.90 in 3.0 mi WSW 3.5 mph - N/A   Mist
12:44 AM 5.0 °F -2.1 °F -0.4 °F 78% 29.91 in 10.0 mi WSW 3.5 mph - N/A   Partly Cloudy
12:53 AM 5.0 °F -5.6 °F -0.0 °F 80% 30.05 in 10.0 mi WSW 5.8 mph - N/A   Clear
1:53 AM 3.0 °F -6.4 °F -0.9 °F 84% 30.07 in 10.0 mi WNW 4.6 mph - N/A   Clear
2:05 AM 3.2 °F - -0.4 °F 85% 29.93 in 6.0 mi Calm Calm - N/A   Partly Cloudy
2:53 AM 1.9 °F - -2.0 °F 83% 30.09 in 2.0 mi Calm Calm - N/A   Clear
2:59 AM 1.4 °F - -4.0 °F 78% 29.94 in 1.2 mi Calm Calm - N/A   Haze
3:09 AM 1.4 °F - -2.2 °F 85% 29.94 in 1.5 mi Calm Calm - N/A   Haze
3:20 AM 1.4 °F -9.9 °F -2.2 °F 85% 29.95 in 2.0 mi NE 5.8 mph - N/A   Scattered Clouds
3:24 AM 3.2 °F -6.2 °F -0.4 °F 85% 29.95 in 1.8 mi NE 4.6 mph - N/A   Mostly Cloudy
3:38 AM 3.2 °F -4.2 °F -0.4 °F 85% 29.95 in 0.8 mi NNE 3.5 mph - N/A   Mist
3:53 AM 1.9 °F -5.6 °F -2.0 °F 83% 30.11 in 0.2 mi North 3.5 mph - N/A Fog Light Freezing Fog
4:09 AM 1.4 °F -6.2 °F -0.4 °F 92% 29.96 in 0.5 mi North 3.5 mph - N/A Fog Light Freezing Fog
4:20 AM 3.2 °F - 1.4 °F 92% 29.96 in 1.5 mi Calm Calm - 0.00 in Snow Light Snow
4:24 AM 5.0 °F -4.1 °F -0.4 °F 78% 29.96 in 3.0 mi NNE 4.6 mph - 0.00 in Snow Light Snow
4:53 AM 8.1 °F 1.4 °F 3.9 °F 83% 30.11 in 10.0 mi NE 3.5 mph - 0.00 in   Overcast
5:16 AM 8.6 °F - 3.2 °F 79% 29.97 in 8.0 mi Calm Calm - 0.00 in Snow Light Snow
5:53 AM 9.0 °F 2.4 °F 3.9 °F 80% 30.13 in 10.0 mi NNE 3.5 mph - 0.00 in   Overcast
6:09 AM 8.6 °F - 3.2 °F 79% 29.98 in 8.0 mi Calm Calm - 0.00 in Snow Light Snow
6:18 AM 6.8 °F -0.1 °F 1.4 °F 79% 29.99 in 1.2 mi NE 3.5 mph - 0.00 in   Haze
6:26 AM 6.8 °F - 1.4 °F 79% 29.99 in 0.5 mi Calm Calm - 0.00 in Fog Light Freezing Fog
6:53 AM 3.0 °F - -0.0 °F 87% 30.18 in 0.2 mi Calm Calm - 0.00 in Fog Light Freezing Fog
7:53 AM 1.9 °F - -2.0 °F 83% 30.20 in 0.2 mi Calm Calm - N/A Fog Light Freezing Fog
8:53 AM 9.0 °F - 5.0 °F 84% 30.19 in 0.5 mi Calm Calm - N/A Fog Light Freezing Fog
8:58 AM 8.6 °F - 5.0 °F 85% 30.04 in 1.8 mi Calm Calm - N/A   Overcast
9:05 AM 8.6 °F - 5.0 °F 85% 30.03 in 0.8 mi Calm Calm - N/A   Overcast
9:16 AM 10.4 °F - 6.8 °F 85% 30.04 in 1.0 mi Calm Calm - N/A   Overcast
9:19 AM 10.4 °F - 8.6 °F 92% 30.04 in 2.0 mi Calm Calm - N/A   Overcast
9:27 AM 12.2 °F 6.1 °F 8.6 °F 85% 30.05 in 10.0 mi NNE 3.5 mph - N/A   Overcast
9:53 AM 15.1 °F 6.4 °F 9.0 °F 77% 30.20 in 10.0 mi North 5.8 mph - N/A   Scattered Clouds
10:53 AM 18.0 °F - 12.9 °F 81% 30.21 in 10.0 mi Calm Calm - N/A   Clear
11:53 AM 18.0 °F - 15.1 °F 88% 30.21 in 10.0 mi Calm Calm - N/A   Partly Cloudy
12:53 PM 21.9 °F - 17.1 °F 82% 30.20 in 10.0 mi Calm Calm - N/A   Overcast
1:53 PM 24.1 °F - 19.0 °F 81% 30.20 in 10.0 mi Calm Calm - N/A   Overcast
2:53 PM 25.0 °F 20.7 °F 19.9 °F 81% 30.22 in 10.0 mi NNE 3.5 mph - N/A   Overcast
3:53 PM 25.0 °F 20.7 °F 21.0 °F 85% 30.23 in 10.0 mi ESE 3.5 mph - N/A   Overcast
4:53 PM 24.1 °F - 19.9 °F 84% 30.23 in 10.0 mi Calm Calm - N/A   Overcast
5:53 PM 24.1 °F 18.2 °F 19.9 °F 84% 30.23 in 10.0 mi NE 4.6 mph - N/A   Overcast
6:53 PM 23.0 °F - 19.9 °F 88% 30.26 in 10.0 mi Calm Calm - N/A   Overcast
7:53 PM 21.9 °F - 19.0 °F 89% 30.28 in 10.0 mi Calm Calm - N/A   Overcast
8:30 PM 12.2 °F 4.3 °F 12.2 °F 100% 30.11 in 1.2 mi Variable 4.6 mph - N/A   Partly Cloudy
8:32 PM 10.4 °F 4.0 °F 10.4 °F 100% 30.11 in 0.8 mi SSE 3.5 mph - N/A   Partly Cloudy
8:43 PM 10.4 °F 2.2 °F 8.6 °F 92% 30.11 in 1.0 mi SW 4.6 mph - N/A   Mist
8:45 PM 10.4 °F 4.0 °F 8.6 °F 92% 30.11 in 1.8 mi WSW 3.5 mph - N/A   Partly Cloudy
8:47 PM 10.4 °F 2.2 °F 8.6 °F 92% 30.11 in 3.0 mi West 4.6 mph - N/A   Partly Cloudy
8:53 PM 10.9 °F 2.9 °F 9.0 °F 92% 30.29 in 9.0 mi NW 4.6 mph - N/A   Partly Cloudy
9:53 PM 7.0 °F -4.5 °F 5.0 °F 92% 30.29 in 10.0 mi NNW 6.9 mph - N/A   Clear
10:42 PM 1.4 °F -11.3 °F -0.4 °F 92% 30.13 in 2.0 mi East 6.9 mph - N/A   Scattered Clouds
10:44 PM 1.4 °F -11.3 °F -0.4 °F 92% 30.13 in 1.2 mi East 6.9 mph - N/A   Scattered Clouds
10:46 PM 1.4 °F -6.2 °F -0.4 °F 92% 30.13 in 0.8 mi East 3.5 mph - N/A   Mist
10:53 PM 1.0 °F -6.7 °F -0.0 °F 95% 30.32 in 0.2 mi SE 3.5 mph - N/A Fog Light Freezing Fog
11:53 PM 1.0 °F -11.7 °F -2.0 °F 87% 30.33 in 0.5 mi NNW 6.9 mph - N/A Fog Light Freezing Fog